,,,PA_Meas_PMT16A,,PR_Meas_QMR101_102,,RH_Meas_QMH101,,SR_Meas_QMS101,,TA_Meas_QMH101,,GenWind,,GenWind,
date,time,status,PA,status,PR,status,RH,status,SR,status,TA,status,DirAvg,status,SpdAvg,
2009-08-13, 00:00:04,VALID,1006.64,VALID,0,VALID,93.1181,VALID,0.100563,VALID,24.8113,VALID,55,VALID,0.335547,
2009-08-13, 00:01:04,VALID,1006.62,VALID,0,VALID,93.1563,VALID,0.100563,VALID,24.8308,VALID,55,VALID,0.204297,
2009-08-13, 00:02:04,VALID,1006.59,VALID,0,VALID,93.1944,VALID,0.100563,VALID,24.8522,VALID,55,VALID,0.280859,
2009-08-13, 00:03:04,VALID,1006.58,VALID,0,VALID,93.141,VALID,0.100563,VALID,24.8503,VALID,29,VALID,0.588672,
2009-08-13, 00:04:04,VALID,1006.57,VALID,0,VALID,93.0113,VALID,0.100563,VALID,24.8503,VALID,15,VALID,0.585156,
2009-08-13, 00:05:04,VALID,1006.55,VALID,0,VALID,92.8511,VALID,0.100563,VALID,24.8503,VALID,25,VALID,0.513672,
2009-08-13, 00:06:04,VALID,1006.53,VALID,0,VALID,92.5231,VALID,0.100563,VALID,24.8503,VALID,18,VALID,0.532812,
2009-08-13, 00:07:04,VALID,1006.5,VALID,0,VALID,92.3857,VALID,0.100563,VALID,24.9087,VALID,18,VALID,0.299219,
2009-08-13, 00:08:04,VALID,1006.5,VALID,0,VALID,92.2789,VALID,0.100563,VALID,24.9087,VALID,18,VALID,0.180078,
2009-08-13, 00:09:04,VALID,1006.46,VALID,0,VALID,92.1264,VALID,0.100563,VALID,24.9087,VALID,28,VALID,0.178906,
2009-08-13, 00:10:04,VALID,1006.46,VALID,0,VALID,91.9967,VALID,0.100563,VALID,24.8892,VALID,32,VALID,0.267188,
2009-08-13, 00:11:04,VALID,1006.46,VALID,0,VALID,91.9967,VALID,0.100563,VALID,24.93,VALID,32,VALID,0,
2009-08-13, 00:12:04,VALID,1006.44,VALID,0,VALID,91.8822,VALID,0.100563,VALID,24.8892,VALID,32,VALID,0,
2009-08-13, 00:13:04,VALID,1006.43,VALID,0,VALID,91.8059,VALID,0,VALID,24.8716,VALID,43,VALID,0,
2009-08-13, 00:14:04,VALID,1006.42,VALID,0,VALID,91.7525,VALID,0,VALID,24.8716,VALID,57,VALID,0,
2009-08-13, 00:15:04,VALID,1006.42,VALID,0,VALID,91.7678,VALID,0,VALID,24.8716,VALID,57,VALID,0,
2009-08-13, 00:16:04,VALID,1006.42,VALID,0,VALID,91.8746,VALID,0,VALID,24.8716,VALID,57,VALID,0,
2009-08-13, 00:17:04,VALID,1006.43,VALID,0,VALID,91.9128,VALID,0,VALID,24.8716,VALID,57,VALID,0,
2009-08-13, 00:18:04,VALID,1006.42,VALID,0,VALID,91.9128,VALID,0,VALID,24.8716,VALID,57,VALID,0,
2009-08-13, 00:19:04,VALID,1006.42,VALID,0,VALID,91.9509,VALID,0,VALID,24.8522,VALID,57,VALID,0,
2009-08-13, 00:20:04,VALID,1006.43,VALID,0,VALID,91.9128,VALID,0,VALID,24.8522,VALID,51,VALID,0.160938,
2009-08-13, 00:21:04,VALID,1006.43,VALID,0,VALID,91.9204,VALID,0,VALID,24.8327,VALID,47,VALID,0.375,
2009-08-13, 00:22:04,VALID,1006.42,VALID,0,VALID,92.0043,VALID,0,VALID,24.8522,VALID,47,VALID,0,
2009-08-13, 00:23:04,VALID,1006.43,VALID,0,VALID,92.0653,VALID,0,VALID,24.8522,VALID,47,VALID,0.0109375,
2009-08-13, 00:24:04,VALID,1006.41,VALID,0,VALID,92.1569,VALID,0,VALID,24.8522,VALID,47,VALID,0.317969,
2009-08-13, 00:25:04,VALID,1006.41,VALID,0,VALID,92.1645,VALID,0,VALID,24.8522,VALID,43,VALID,0.489062,
2009-08-13, 00:26:04,VALID,1006.41,VALID,0,VALID,92.2866,VALID,0,VALID,24.8522,VALID,42,VALID,0.488672,
2009-08-13, 00:27:04,VALID,1006.41,VALID,0,VALID,92.4391,VALID,0,VALID,24.893,VALID,42,VALID,0.407031,
2009-08-13, 00:28:04,VALID,1006.44,VALID,0,VALID,92.5917,VALID,0.100563,VALID,24.8697,VALID,36,VALID,0.350391,
2009-08-13, 00:29:04,VALID,1006.43,VALID,0,VALID,92.7367,VALID,0,VALID,24.8308,VALID,36,VALID,0.319531,
2009-08-13, 00:30:04,VALID,1006.42,VALID,0,VALID,92.8206,VALID,0.100563,VALID,24.8308,VALID,36,VALID,0.198437,
2009-08-13, 00:31:04,VALID,1006.41,VALID,0,VALID,92.8664,VALID,0.100563,VALID,24.8113,VALID,36,VALID,0,
2009-08-13, 00:32:04,VALID,1006.44,VALID,0,VALID,92.8511,VALID,0.100563,VALID,24.8113,VALID,12,VALID,0.451953,
2009-08-13, 00:33:04,VALID,1006.43,VALID,0,VALID,92.8358,VALID,0.100563,VALID,24.7705,VALID,11,VALID,0.585156,
2009-08-13, 00:34:04,VALID,1006.45,VALID,0,VALID,92.7977,VALID,0,VALID,24.7724,VALID,11,VALID,0.420312,
2009-08-13, 00:35:04,VALID,1006.44,VALID,0,VALID,92.7519,VALID,0.100563,VALID,24.7705,VALID,11,VALID,0.333594,
2009-08-13, 00:36:04,VALID,1006.45,VALID,0,VALID,92.6528,VALID,0.100563,VALID,24.7919,VALID,9,VALID,0.276953,
2009-08-13, 00:37:04,VALID,1006.43,VALID,0,VALID,92.5765,VALID,0,VALID,24.751,VALID,9,VALID,0.229687,
2009-08-13, 00:38:04,VALID,1006.42,VALID,0,VALID,92.5002,VALID,0.100563,VALID,24.7724,VALID,9,VALID,0.500781,
2009-08-13, 00:39:04,VALID,1006.36,VALID,0,VALID,92.3781,VALID,0.100563,VALID,24.7724,VALID,8,VALID,0.441016,
2009-08-13, 00:40:04,VALID,1006.37,VALID,0,VALID,92.3095,VALID,0.100563,VALID,24.7724,VALID,8,VALID,0.391797,
2009-08-13, 00:41:04,VALID,1006.36,VALID,0,VALID,92.2942,VALID,0.100563,VALID,24.7529,VALID,8,VALID,0.429688,
2009-08-13, 00:42:04,VALID,1006.36,VALID,0,VALID,92.2637,VALID,0.100563,VALID,24.7529,VALID,8,VALID,0.609766,
2009-08-13, 00:43:04,VALID,1006.35,VALID,0,VALID,92.3171,VALID,0,VALID,24.7548,VALID,8,VALID,0.68125,
2009-08-13, 00:44:04,VALID,1006.35,VALID,0,VALID,92.34,VALID,0,VALID,24.7159,VALID,7,VALID,0.651563,
2009-08-13, 00:45:04,VALID,1006.35,VALID,0,VALID,92.4468,VALID,0,VALID,24.7159,VALID,7,VALID,0.707422,
2009-08-13, 00:46:04,VALID,1006.32,VALID,0,VALID,92.5154,VALID,0,VALID,24.6964,VALID,7,VALID,0.683594,
2009-08-13, 00:47:04,VALID,1006.34,VALID,0,VALID,92.5841,VALID,0,VALID,24.6574,VALID,7,VALID,0.644141,
2009-08-13, 00:48:04,VALID,1006.31,VALID,0,VALID,92.6909,VALID,0,VALID,24.6361,VALID,7,VALID,0.308203,
2009-08-13, 00:49:04,VALID,1006.31,VALID,0,VALID,92.7977,VALID,0,VALID,24.6166,VALID,7,VALID,0.448828,
2009-08-13, 00:50:04,VALID,1006.29,VALID,0,VALID,92.874,VALID,0,VALID,24.6185,VALID,7,VALID,0.437109,
2009-08-13, 00:51:04,VALID,1006.26,VALID,0,VALID,92.9274,VALID,0,VALID,24.599,VALID,7,VALID,0.317578,
2009-08-13, 00:52:04,VALID,1006.24,VALID,0,VALID,93.0418,VALID,0,VALID,24.5796,VALID,7,VALID,0.480078,
2009-08-13, 00:53:04,VALID,1006.23,VALID,0,VALID,93.1257,VALID,0,VALID,24.5388,VALID,7,VALID,0.248437,
2009-08-13, 00:54:04,VALID,1006.21,VALID,0,VALID,93.1868,VALID,0,VALID,24.5212,VALID,8,VALID,0.282031,
2009-08-13, 00:55:04,VALID,1006.19,VALID,0,VALID,93.2707,VALID,0,VALID,24.5212,VALID,8,VALID,0.38125,
2009-08-13, 00:56:04,VALID,1006.17,VALID,0,VALID,93.3546,VALID,0,VALID,24.5212,VALID,13,VALID,0.74375,
2009-08-13, 00:57:04,VALID,1006.14,VALID,0,VALID,93.4538,VALID,0,VALID,24.5212,VALID,13,VALID,0.319141,
2009-08-13, 00:58:04,VALID,1006.11,VALID,0,VALID,93.4996,VALID,0,VALID,24.5212,VALID,13,VALID,0.180859,
2009-08-13, 00:59:04,VALID,1006.03,VALID,0,VALID,93.5301,VALID,0,VALID,24.5017,VALID,13,VALID,0,
2009-08-13, 01:00:04,VALID,1006.04,VALID,0,VALID,93.5987,VALID,0,VALID,24.4804,VALID,13,VALID,0,
2009-08-13, 01:01:04,VALID,1006.03,VALID,0,VALID,93.6292,VALID,0,VALID,24.4822,VALID,13,VALID,0,
2009-08-13, 01:02:04,VALID,1006.01,VALID,0,VALID,93.6369,VALID,0,VALID,24.4628,VALID,13,VALID,0,
2009-08-13, 01:03:04,VALID,1006,VALID,0,VALID,93.7055,VALID,0,VALID,24.4433,VALID,13,VALID,0,
2009-08-13, 01:04:04,VALID,1006.01,VALID,0,VALID,93.7589,VALID,0,VALID,24.422,VALID,13,VALID,0,
2009-08-13, 01:05:04,VALID,1006,VALID,0,VALID,93.8123,VALID,0,VALID,24.4433,VALID,13,VALID,0,
2009-08-13, 01:06:04,VALID,1006,VALID,0,VALID,93.8429,VALID,0,VALID,24.4025,VALID,13,VALID,0,
2009-08-13, 01:07:04,VALID,1006.01,VALID,0,VALID,93.8657,VALID,0,VALID,24.4043,VALID,13,VALID,0,
2009-08-13, 01:08:04,VALID,1006,VALID,0,VALID,93.8734,VALID,0,VALID,24.383,VALID,13,VALID,0,
2009-08-13, 01:09:04,VALID,1006.02,VALID,0,VALID,93.881,VALID,0,VALID,24.3849,VALID,13,VALID,0,
2009-08-13, 01:10:04,VALID,1006.02,VALID,0,VALID,93.8734,VALID,0,VALID,24.4043,VALID,13,VALID,0,
2009-08-13, 01:11:04,VALID,1006.06,VALID,0,VALID,93.9268,VALID,0,VALID,24.4238,VALID,13,VALID,0,
2009-08-13, 01:12:04,VALID,1006.06,VALID,0,VALID,93.9268,VALID,0,VALID,24.4025,VALID,13,VALID,0,
2009-08-13, 01:13:04,VALID,1006.07,VALID,0,VALID,93.9268,VALID,0,VALID,24.4238,VALID,13,VALID,0,
2009-08-13, 01:14:04,VALID,1006.1,VALID,0,VALID,93.9268,VALID,0,VALID,24.4238,VALID,13,VALID,0,
2009-08-13, 01:15:04,VALID,1006.09,VALID,0,VALID,93.9344,VALID,0,VALID,24.4025,VALID,13,VALID,0,
2009-08-13, 01:16:04,VALID,1006.06,VALID,0,VALID,93.9039,VALID,0,VALID,24.4238,VALID,13,VALID,0,
2009-08-13, 01:17:04,VALID,1006.06,VALID,0,VALID,93.8352,VALID,0,VALID,24.4043,VALID,13,VALID,0,
2009-08-13, 01:18:04,VALID,1006.02,VALID,0,VALID,93.8505,VALID,0,VALID,24.4043,VALID,13,VALID,0,
2009-08-13, 01:19:04,VALID,1005.99,VALID,0,VALID,93.8276,VALID,0,VALID,24.3849,VALID,13,VALID,0,
2009-08-13, 01:20:04,VALID,1005.96,VALID,0,VALID,93.8505,VALID,0,VALID,24.4043,VALID,13,VALID,0,
2009-08-13, 01:21:04,VALID,1005.95,VALID,0,VALID,93.881,VALID,0,VALID,24.3849,VALID,13,VALID,0,
2009-08-13, 01:22:04,VALID,1005.91,VALID,0,VALID,93.8581,VALID,0,VALID,24.3654,VALID,13,VALID,0,
2009-08-13, 01:23:04,VALID,1005.92,VALID,0,VALID,93.8581,VALID,0,VALID,24.3441,VALID,13,VALID,0,
2009-08-13, 01:24:04,VALID,1005.91,VALID,0,VALID,93.8657,VALID,0,VALID,24.3265,VALID,13,VALID,0,
2009-08-13, 01:25:04,VALID,1005.9,VALID,0,VALID,93.881,VALID,0,VALID,24.3265,VALID,13,VALID,0,
2009-08-13, 01:26:04,VALID,1005.92,VALID,0,VALID,93.9039,VALID,0,VALID,24.3265,VALID,13,VALID,0,
2009-08-13, 01:27:04,VALID,1005.94,VALID,0,VALID,93.9344,VALID,0,VALID,24.3052,VALID,13,VALID,0,
2009-08-13, 01:28:04,VALID,1005.99,VALID,0,VALID,94.0259,VALID,0.100563,VALID,24.3441,VALID,13,VALID,0,
2009-08-13, 01:29:04,VALID,1005.99,VALID,0,VALID,94.0336,VALID,0.100563,VALID,24.3441,VALID,13,VALID,0,
2009-08-13, 01:30:04,VALID,1005.96,VALID,0,VALID,94.0488,VALID,0.100563,VALID,24.3441,VALID,13,VALID,0,
2009-08-13, 01:31:04,VALID,1005.94,VALID,0,VALID,94.0794,VALID,0.100563,VALID,24.3441,VALID,13,VALID,0,
2009-08-13, 01:32:04,VALID,1005.94,VALID,0,VALID,94.1099,VALID,0.100563,VALID,24.3228,VALID,13,VALID,0,
2009-08-13, 01:33:04,VALID,1005.91,VALID,0,VALID,94.0946,VALID,0.100563,VALID,24.3422,VALID,13,VALID,0,
2009-08-13, 01:34:04,VALID,1005.87,VALID,0,VALID,94.1099,VALID,0.100563,VALID,24.3422,VALID,13,VALID,0,
2009-08-13, 01:35:04,VALID,1005.86,VALID,0,VALID,94.1175,VALID,0.100563,VALID,24.3441,VALID,13,VALID,0,
2009-08-13, 01:36:04,VALID,1005.82,VALID,0,VALID,94.0946,VALID,0.100563,VALID,24.3246,VALID,13,VALID,0,
2009-08-13, 01:37:04,VALID,1005.8,VALID,0,VALID,94.0794,VALID,0.100563,VALID,24.3228,VALID,13,VALID,0,
2009-08-13, 01:38:04,VALID,1005.79,VALID,0,VALID,94.0641,VALID,0.100563,VALID,24.3033,VALID,13,VALID,0,
2009-08-13, 01:39:04,VALID,1005.88,VALID,0,VALID,94.0717,VALID,0.100563,VALID,24.3636,VALID,177,VALID,2.16797,
2009-08-13, 01:40:04,VALID,1005.87,VALID,0,VALID,94.1328,VALID,0.100563,VALID,24.383,VALID,160,VALID,0.871484,
2009-08-13, 01:41:04,VALID,1005.86,VALID,0,VALID,94.1328,VALID,0.100563,VALID,24.422,VALID,152,VALID,0.744531,
2009-08-13, 01:42:04,VALID,1005.87,VALID,0,VALID,94.0488,VALID,0.100563,VALID,24.4396,VALID,160,VALID,1.07852,
2009-08-13, 01:43:04,VALID,1005.85,VALID,0,VALID,93.5987,VALID,0,VALID,24.5212,VALID,167,VALID,0.640234,
2009-08-13, 01:44:04,VALID,1005.85,VALID,0,VALID,92.5688,VALID,0,VALID,24.5582,VALID,216,VALID,2.8168,
2009-08-13, 01:45:04,VALID,1005.83,VALID,0,VALID,91.5313,VALID,0,VALID,24.7743,VALID,198,VALID,1.07305,
2009-08-13, 01:46:04,VALID,1005.86,VALID,0,VALID,90.1657,VALID,0,VALID,24.8716,VALID,184,VALID,1.04297,
2009-08-13, 01:47:04,VALID,1005.82,VALID,0,VALID,85.4053,VALID,0,VALID,24.9106,VALID,199,VALID,1.76055,
2009-08-13, 01:48:04,VALID,1005.79,VALID,0,VALID,83.3913,VALID,0,VALID,25.0274,VALID,197,VALID,1.01172,
2009-08-13, 01:49:04,VALID,1005.79,VALID,0,VALID,82.5597,VALID,0,VALID,25.0858,VALID,168,VALID,0.554297,
2009-08-13, 01:50:04,VALID,1005.73,VALID,0,VALID,81.1637,VALID,0,VALID,25.1053,VALID,180,VALID,1.63398,
2009-08-13, 01:51:04,VALID,1005.75,VALID,0,VALID,81.9113,VALID,0,VALID,25.1442,VALID,169,VALID,0.863672,
2009-08-13, 01:52:04,VALID,1005.74,VALID,0,VALID,81.6443,VALID,0,VALID,25.1229,VALID,328,VALID,0.649219,
2009-08-13, 01:53:04,VALID,1005.72,VALID,0,VALID,82.2851,VALID,0,VALID,25.1248,VALID,10,VALID,0.69375,
2009-08-13, 01:54:04,VALID,1005.81,VALID,0,VALID,82.9107,VALID,0,VALID,25.1053,VALID,149,VALID,0.488281,
2009-08-13, 01:55:04,VALID,1005.78,VALID,0,VALID,83.0556,VALID,0,VALID,25.1053,VALID,209,VALID,0.44375,
2009-08-13, 01:56:04,VALID,1005.84,VALID,0,VALID,83.4981,VALID,0,VALID,25.0858,VALID,277,VALID,0.478125,
2009-08-13, 01:57:04,VALID,1005.83,VALID,0,VALID,83.4371,VALID,0,VALID,25.0663,VALID,321,VALID,0.369922,
2009-08-13, 01:58:04,VALID,1005.85,VALID,0,VALID,83.7498,VALID,0,VALID,25.0469,VALID,321,VALID,0.272266,
2009-08-13, 01:59:04,VALID,1005.83,VALID,0,VALID,83.849,VALID,0,VALID,25.0488,VALID,2,VALID,0.793359,
2009-08-13, 02:00:04,VALID,1005.85,VALID,0,VALID,83.7041,VALID,0,VALID,25.0274,VALID,351,VALID,0.160547,
2009-08-13, 02:01:04,VALID,1005.85,VALID,0,VALID,84.5433,VALID,0,VALID,25.0274,VALID,6,VALID,0.546484,
2009-08-13, 02:02:04,VALID,1005.85,VALID,0,VALID,84.383,VALID,0,VALID,24.969,VALID,5,VALID,0.573828,
2009-08-13, 02:03:04,VALID,1005.87,VALID,0,VALID,84.7111,VALID,0,VALID,24.9709,VALID,356,VALID,0.659375,
2009-08-13, 02:04:04,VALID,1005.88,VALID,0,VALID,85.1002,VALID,0,VALID,24.8911,VALID,328,VALID,0.661328,
2009-08-13, 02:05:04,VALID,1005.92,VALID,0,VALID,85.1459,VALID,0,VALID,24.8716,VALID,304,VALID,0.291797,
2009-08-13, 02:06:04,VALID,1005.94,VALID,0,VALID,84.7874,VALID,0,VALID,24.8716,VALID,302,VALID,0.388281,
2009-08-13, 02:07:04,VALID,1006.01,VALID,0,VALID,84.3068,VALID,0,VALID,24.8716,VALID,282,VALID,0.003125,
2009-08-13, 02:08:04,VALID,1006.05,VALID,0,VALID,84.4288,VALID,0,VALID,24.8503,VALID,231,VALID,0.578125,
2009-08-13, 02:09:04,VALID,1006.04,VALID,0,VALID,83.6659,VALID,0,VALID,24.8697,VALID,196,VALID,0.64375,
2009-08-13, 02:10:04,VALID,1006.08,VALID,0,VALID,84.3602,VALID,0,VALID,24.9495,VALID,162,VALID,0.608203,
2009-08-13, 02:11:04,VALID,1006.07,VALID,0,VALID,85.4663,VALID,0,VALID,24.9087,VALID,137,VALID,0.378906,
2009-08-13, 02:12:04,VALID,1006.06,VALID,0,VALID,85.474,VALID,0,VALID,24.8308,VALID,130,VALID,0.50625,
2009-08-13, 02:13:04,VALID,1006.03,VALID,0,VALID,85.802,VALID,0,VALID,24.7724,VALID,130,VALID,0,
2009-08-13, 02:14:04,VALID,1006.01,VALID,0,VALID,85.5884,VALID,0,VALID,24.7743,VALID,130,VALID,0.350781,
2009-08-13, 02:15:04,VALID,1006.01,VALID,0,VALID,85.7181,VALID,0,VALID,24.7548,VALID,130,VALID,0.0128906,
2009-08-13, 02:16:04,VALID,1005.97,VALID,0,VALID,85.9165,VALID,0,VALID,24.7353,VALID,130,VALID,0.285547,
2009-08-13, 02:17:04,VALID,1005.94,VALID,0,VALID,85.9775,VALID,0,VALID,24.7353,VALID,126,VALID,1.12695,
2009-08-13, 02:18:04,VALID,1005.94,VALID,0,VALID,85.474,VALID,0,VALID,24.7548,VALID,111,VALID,0.484766,
2009-08-13, 02:19:04,VALID,1005.91,VALID,0,VALID,85.8478,VALID,0,VALID,24.7372,VALID,111,VALID,0.0582031,
2009-08-13, 02:20:04,VALID,1005.95,VALID,0,VALID,85.9165,VALID,0,VALID,24.675,VALID,111,VALID,0.0789063,
2009-08-13, 02:21:04,VALID,1005.94,VALID,0,VALID,86.2216,VALID,0,VALID,24.6964,VALID,111,VALID,0,
2009-08-13, 02:22:04,VALID,1005.93,VALID,0,VALID,86.3437,VALID,0,VALID,24.6361,VALID,111,VALID,0.00234375,
2009-08-13, 02:23:04,VALID,1005.94,VALID,0,VALID,85.8631,VALID,0,VALID,24.6185,VALID,111,VALID,0.217578,
2009-08-13, 02:24:04,VALID,1005.93,VALID,0,VALID,86.0233,VALID,0,VALID,24.599,VALID,111,VALID,0.358594,
2009-08-13, 02:25:04,VALID,1005.91,VALID,0,VALID,86.1682,VALID,0,VALID,24.5601,VALID,102,VALID,0.390625,
2009-08-13, 02:26:04,VALID,1005.92,VALID,0,VALID,86.1224,VALID,0,VALID,24.5406,VALID,91,VALID,0.0195313,
2009-08-13, 02:27:04,VALID,1005.9,VALID,0,VALID,86.0767,VALID,0,VALID,24.4804,VALID,48,VALID,0.614062,
2009-08-13, 02:28:04,VALID,1005.89,VALID,0,VALID,86.6488,VALID,0,VALID,24.4628,VALID,48,VALID,0.444141,
2009-08-13, 02:29:04,VALID,1005.87,VALID,0,VALID,86.9616,VALID,0,VALID,24.383,VALID,48,VALID,0.355859,
2009-08-13, 02:30:04,VALID,1005.91,VALID,0,VALID,87.1447,VALID,0,VALID,24.3654,VALID,49,VALID,0.313672,
2009-08-13, 02:31:04,VALID,1005.94,VALID,0,VALID,87.3125,VALID,0,VALID,24.307,VALID,81,VALID,0.814453,
2009-08-13, 02:32:04,VALID,1005.96,VALID,0,VALID,87.6329,VALID,0,VALID,24.2486,VALID,104,VALID,0.785937,
2009-08-13, 02:33:04,VALID,1006.06,VALID,0,VALID,88.0373,VALID,0,VALID,24.1884,VALID,118,VALID,0.716797,
2009-08-13, 02:34:04,VALID,1006.1,VALID,0,VALID,88.4264,VALID,0,VALID,24.1902,VALID,132,VALID,0.773047,
2009-08-13, 02:35:04,VALID,1006.12,VALID,0,VALID,88.1212,VALID,0,VALID,24.1902,VALID,130,VALID,0.686328,
2009-08-13, 02:36:04,VALID,1006.13,VALID,0,VALID,87.9,VALID,0,VALID,24.1689,VALID,104,VALID,0.529297,
2009-08-13, 02:37:04,VALID,1006.11,VALID,0,VALID,87.3812,VALID,0,VALID,24.2115,VALID,107,VALID,0.353125,
2009-08-13, 02:38:04,VALID,1006.13,VALID,0,VALID,85.7715,VALID,0,VALID,24.2486,VALID,113,VALID,1.03164,
2009-08-13, 02:39:04,VALID,1006.09,VALID,0,VALID,85.9927,VALID,0,VALID,24.3654,VALID,101,VALID,0.414844,
2009-08-13, 02:40:04,VALID,1006.01,VALID,0,VALID,85.6418,VALID,0,VALID,24.3636,VALID,86,VALID,0.670703,
2009-08-13, 02:41:04,VALID,1006,VALID,0,VALID,85.9775,VALID,0,VALID,24.4238,VALID,78,VALID,0.310547,
2009-08-13, 02:42:04,VALID,1005.96,VALID,0,VALID,85.4206,VALID,0,VALID,24.4238,VALID,78,VALID,0.687109,
2009-08-13, 02:43:04,VALID,1005.9,VALID,0,VALID,85.4053,VALID,0,VALID,24.4628,VALID,99,VALID,0.954297,
2009-08-13, 02:44:04,VALID,1005.89,VALID,0,VALID,85.7562,VALID,0,VALID,24.5017,VALID,146,VALID,0.672656,
2009-08-13, 02:45:04,VALID,1005.86,VALID,0,VALID,85.3519,VALID,0,VALID,24.5017,VALID,145,VALID,0.999219,
2009-08-13, 02:46:04,VALID,1005.83,VALID,0,VALID,85.329,VALID,0,VALID,24.5601,VALID,143,VALID,0.949609,
2009-08-13, 02:47:04,VALID,1005.82,VALID,0,VALID,85.3824,VALID,0,VALID,24.599,VALID,146,VALID,0.571094,
2009-08-13, 02:48:04,VALID,1005.88,VALID,0,VALID,85.7791,VALID,0,VALID,24.6185,VALID,123,VALID,0.931641,
2009-08-13, 02:49:04,VALID,1005.87,VALID,0,VALID,86.0385,VALID,0,VALID,24.6574,VALID,161,VALID,0.853125,
2009-08-13, 02:50:04,VALID,1005.89,VALID,0,VALID,86.1529,VALID,0,VALID,24.7159,VALID,136,VALID,1.24609,
2009-08-13, 02:51:04,VALID,1005.88,VALID,0,VALID,85.9775,VALID,0,VALID,24.7548,VALID,158,VALID,0.758594,
2009-08-13, 02:52:04,VALID,1005.88,VALID,0,VALID,84.5661,VALID,0,VALID,24.7548,VALID,151,VALID,1.29922,
2009-08-13, 02:53:04,VALID,1005.91,VALID,0,VALID,84.8255,VALID,0,VALID,24.7937,VALID,186,VALID,1.26953,
2009-08-13, 02:54:04,VALID,1005.96,VALID,0,VALID,84.2076,VALID,0,VALID,24.8346,VALID,142,VALID,1.84805,
2009-08-13, 02:55:04,VALID,1006,VALID,0,VALID,84.3373,VALID,0,VALID,24.8327,VALID,132,VALID,1.04102,
2009-08-13, 02:56:04,VALID,1006.02,VALID,0,VALID,83.3608,VALID,0,VALID,24.8522,VALID,143,VALID,2.57656,
2009-08-13, 02:57:04,VALID,1006.04,VALID,0,VALID,83.0861,VALID,0,VALID,24.8911,VALID,155,VALID,1.79961,
2009-08-13, 02:58:04,VALID,1006.05,VALID,0,VALID,83.1243,VALID,0,VALID,24.8911,VALID,139,VALID,1.81562,
2009-08-13, 02:59:04,VALID,1006,VALID,0,VALID,83.3837,VALID,0,VALID,24.8716,VALID,144,VALID,2.13281,
2009-08-13, 03:00:04,VALID,1005.95,VALID,0,VALID,84.1847,VALID,0,VALID,24.8132,VALID,116,VALID,2.87266,
2009-08-13, 03:01:04,VALID,1005.89,VALID,0,VALID,84.4288,VALID,0,VALID,24.7548,VALID,133,VALID,1.23125,
2009-08-13, 03:02:04,VALID,1005.84,VALID,0,VALID,84.856,VALID,0,VALID,24.7353,VALID,154,VALID,1.68359,
2009-08-13, 03:03:04,VALID,1005.78,VALID,0,VALID,84.2915,VALID,0,VALID,24.675,VALID,118,VALID,1.41797,
2009-08-13, 03:04:04,VALID,1005.72,VALID,0,VALID,84.4441,VALID,0,VALID,24.675,VALID,150,VALID,1.40859,
2009-08-13, 03:05:04,VALID,1005.71,VALID,0,VALID,84.5127,VALID,0,VALID,24.6574,VALID,146,VALID,1.01563,
2009-08-13, 03:06:04,VALID,1005.75,VALID,0,VALID,84.5661,VALID,0,VALID,24.6788,VALID,141,VALID,1.16602,
2009-08-13, 03:07:04,VALID,1005.75,VALID,0,VALID,84.589,VALID,0,VALID,24.6574,VALID,132,VALID,1.14023,
2009-08-13, 03:08:04,VALID,1005.8,VALID,0,VALID,84.055,VALID,0,VALID,24.638,VALID,126,VALID,2.46563,
2009-08-13, 03:09:04,VALID,1005.85,VALID,0,VALID,84.2534,VALID,0,VALID,24.6769,VALID,131,VALID,2.65625,
2009-08-13, 03:10:04,VALID,1005.84,VALID,0,VALID,84.5204,VALID,0,VALID,24.6574,VALID,150,VALID,2.61797,
2009-08-13, 03:11:04,VALID,1005.86,VALID,0,VALID,84.2839,VALID,0,VALID,24.6185,VALID,129,VALID,1.67383,
2009-08-13, 03:12:04,VALID,1005.87,VALID,0,VALID,84.3449,VALID,0,VALID,24.638,VALID,146,VALID,1.51602,
2009-08-13, 03:13:04,VALID,1005.82,VALID,0,VALID,83.7575,VALID,0,VALID,24.638,VALID,113,VALID,1.23477,
2009-08-13, 03:14:04,VALID,1005.82,VALID,0,VALID,84.2381,VALID,0,VALID,24.6574,VALID,134,VALID,0.861719,
2009-08-13, 03:15:04,VALID,1005.81,VALID,0,VALID,83.9558,VALID,0,VALID,24.6788,VALID,118,VALID,1.94141,
2009-08-13, 03:16:04,VALID,1005.78,VALID,0,VALID,83.8109,VALID,0,VALID,24.6964,VALID,94,VALID,1.63203,
2009-08-13, 03:17:04,VALID,1005.75,VALID,0,VALID,84.5585,VALID,0,VALID,24.6964,VALID,125,VALID,2.05,
2009-08-13, 03:18:04,VALID,1005.69,VALID,0,VALID,84.9857,VALID,0,VALID,24.6964,VALID,156,VALID,1.80039,
2009-08-13, 03:19:04,VALID,1005.69,VALID,0,VALID,85.2833,VALID,0,VALID,24.6769,VALID,109,VALID,0.965625,
2009-08-13, 03:20:04,VALID,1005.63,VALID,0,VALID,85.4816,VALID,0,VALID,24.638,VALID,127,VALID,1.17617,
2009-08-13, 03:21:04,VALID,1005.62,VALID,0,VALID,85.7791,VALID,0,VALID,24.599,VALID,112,VALID,1.04414,
2009-08-13, 03:22:04,VALID,1005.56,VALID,0,VALID,86.1835,VALID,0,VALID,24.5814,VALID,110,VALID,2.32109,
2009-08-13, 03:23:04,VALID,1005.58,VALID,0,VALID,86.2826,VALID,0,VALID,24.5796,VALID,144,VALID,1.6625,
2009-08-13, 03:24:04,VALID,1005.59,VALID,0,VALID,86.6336,VALID,0,VALID,24.5601,VALID,147,VALID,0.548437,
2009-08-13, 03:25:04,VALID,1005.64,VALID,0,VALID,86.8014,VALID,0,VALID,24.5601,VALID,133,VALID,0.908594,
2009-08-13, 03:26:04,VALID,1005.69,VALID,0,VALID,86.9998,VALID,0,VALID,24.5388,VALID,124,VALID,1.28711,
2009-08-13, 03:27:04,VALID,1005.71,VALID,0,VALID,86.8014,VALID,0,VALID,24.5406,VALID,107,VALID,1.67148,
2009-08-13, 03:28:04,VALID,1005.74,VALID,0,VALID,86.8395,VALID,0,VALID,24.5601,VALID,130,VALID,0.930859,
2009-08-13, 03:29:04,VALID,1005.74,VALID,0,VALID,86.9387,VALID,0,VALID,24.5406,VALID,134,VALID,1.68711,
2009-08-13, 03:30:04,VALID,1005.74,VALID,0,VALID,87.076,VALID,0,VALID,24.5406,VALID,112,VALID,1.29492,
2009-08-13, 03:31:04,VALID,1005.7,VALID,0,VALID,87.1066,VALID,0,VALID,24.5406,VALID,129,VALID,0.860547,
2009-08-13, 03:32:04,VALID,1005.63,VALID,0,VALID,87.1294,VALID,0,VALID,24.4998,VALID,101,VALID,1.3918,
2009-08-13, 03:33:04,VALID,1005.56,VALID,0,VALID,87.1066,VALID,0,VALID,24.4998,VALID,99,VALID,0.762891,
2009-08-13, 03:34:04,VALID,1005.49,VALID,0,VALID,87.1066,VALID,0,VALID,24.5017,VALID,101,VALID,0.55625,
2009-08-13, 03:35:04,VALID,1005.44,VALID,0,VALID,87.3125,VALID,0,VALID,24.5017,VALID,102,VALID,0.720312,
2009-08-13, 03:36:04,VALID,1005.37,VALID,0,VALID,87.4346,VALID,0,VALID,24.4804,VALID,116,VALID,0.597266,
2009-08-13, 03:37:04,VALID,1005.35,VALID,0,VALID,87.5643,VALID,0,VALID,24.523,VALID,119,VALID,0.701953,
2009-08-13, 03:38:04,VALID,1005.35,VALID,0,VALID,87.6711,VALID,0,VALID,24.5017,VALID,129,VALID,1.06875,
2009-08-13, 03:39:04,VALID,1005.37,VALID,0,VALID,87.6024,VALID,0,VALID,24.4822,VALID,121,VALID,0.657031,
2009-08-13, 03:40:04,VALID,1005.35,VALID,0,VALID,87.755,VALID,0,VALID,24.4628,VALID,138,VALID,1.00937,
2009-08-13, 03:41:04,VALID,1005.34,VALID,0,VALID,87.8084,VALID,0,VALID,24.4433,VALID,129,VALID,0.651563,
2009-08-13, 03:42:04,VALID,1005.32,VALID,0,VALID,87.7855,VALID,0,VALID,24.4238,VALID,87,VALID,0.776172,
2009-08-13, 03:43:04,VALID,1005.29,VALID,0,VALID,87.694,VALID,0,VALID,24.4043,VALID,135,VALID,0.885156,
2009-08-13, 03:44:04,VALID,1005.25,VALID,0,VALID,87.3888,VALID,0,VALID,24.3867,VALID,92,VALID,0.723828,
2009-08-13, 03:45:04,VALID,1005.22,VALID,0,VALID,87.5719,VALID,0,VALID,24.3459,VALID,92,VALID,0.231641,
2009-08-13, 03:46:04,VALID,1005.18,VALID,0,VALID,87.6406,VALID,0,VALID,24.3265,VALID,92,VALID,0.078125,
2009-08-13, 03:47:04,VALID,1005.16,VALID,0,VALID,87.7703,VALID,0,VALID,24.3088,VALID,91,VALID,0.1625,